• In Belarus
  • List of Countries
  • For 7 days
  • Water Temperature
  • Satellite Maps
  • Weather Map
  • Weather Widgets
  • user-avatar
    Login

    Hourly Weather Sharan

    Today, 16 January, Wednesday

    Time Temperature Precipitation Wind Pressure Humidity
    00:00 +4°C° 0 mm 1 mps 584 mmHg 27%
    01:00 +4°C° 0 mm 1 mps 584 mmHg 30%
    02:00 +3°C° 0 mm 2 mps 584 mmHg 32%
    03:00 +3°C° 0 mm 2 mps 583 mmHg 36%
    04:00 +3°C° 0 mm 1 mps 583 mmHg 40%
    05:00 +2°C° 0 mm 1 mps 583 mmHg 43%
    06:00 +2°C° 0 mm 1 mps 583 mmHg 44%
    07:00 +2°C° 0 mm 1 mps 583 mmHg 46%
    08:00 +2°C° 0 mm 1 mps 583 mmHg 48%
    09:00 +4°C° 0 mm 1 mps 584 mmHg 44%
    10:00 +4°C° 0 mm 2 mps 585 mmHg 41%
    11:00 +6°C° 0 mm 2 mps 585 mmHg 37%
    12:00 +7°C° 0 mm 2 mps 586 mmHg 36%
    13:00 +8°C° 0 mm 2 mps 586 mmHg 34%
    14:00 +9°C° 0 mm 3 mps 586 mmHg 33%
    15:00 +9°C° 0 mm 3 mps 586 mmHg 32%
    16:00 +8°C° 0 mm 3 mps 586 mmHg 31%
    17:00 +8°C° 0 mm 3 mps 586 mmHg 30%
    18:00 +7°C° 0 mm 2 mps 586 mmHg 34%
    19:00 +5°C° 0 mm 2 mps 586 mmHg 37%
    20:00 +4°C° 0 mm 2 mps 586 mmHg 40%
    21:00 +4°C° 0 mm 1 mps 586 mmHg 40%
    22:00 +3°C° 0 mm 1 mps 586 mmHg 40%
    23:00 +2°C° 0 mm 1 mps 586 mmHg 40%

    Tomorrow, 17 January, Thursday

    Time Temperature Precipitation Wind Pressure Humidity
    00:00 +2°C° 0 mm 1 mps 585 mmHg 41%
    01:00 +2°C° 0 mm 1 mps 585 mmHg 42%
    02:00 +1°C° 0 mm 1 mps 585 mmHg 43%
    03:00 +1°C° 0 mm 1 mps 585 mmHg 44%
    04:00 +1°C° 0 mm 1 mps 585 mmHg 45%
    05:00 0°C° 0 mm 1 mps 584 mmHg 46%
    06:00 0°C° 0 mm 1 mps 585 mmHg 47%
    07:00 0°C° 0 mm 1 mps 585 mmHg 48%
    08:00 0°C° 0 mm 1 mps 585 mmHg 49%
    09:00 +2°C° 0 mm 1 mps 586 mmHg 45%
    10:00 +4°C° 0 mm 1 mps 587 mmHg 41%
    11:00 +4°C° 0 mm 0 mps 587 mmHg 37%
    12:00 +6°C° 0 mm 1 mps 587 mmHg 35%
    13:00 +7°C° 0 mm 1 mps 587 mmHg 32%
    14:00 +8°C° 0 mm 1 mps 586 mmHg 30%
    15:00 +7°C° 0 mm 1 mps 586 mmHg 31%
    16:00 +7°C° 0 mm 1 mps 586 mmHg 32%
    17:00 +7°C° 0 mm 1 mps 586 mmHg 33%
    18:00 +6°C° 0 mm 1 mps 586 mmHg 36%
    19:00 +5°C° 0 mm 1 mps 586 mmHg 38%
    20:00 +4°C° 0 mm 1 mps 585 mmHg 40%
    21:00 +4°C° 0 mm 1 mps 585 mmHg 41%
    22:00 +4°C° 0 mm 1 mps 585 mmHg 42%
    23:00 +3°C° 0 mm 1 mps 585 mmHg 43%

    Day after tomorrow, 18 January, Friday

    Time Temperature Precipitation Wind Pressure Humidity
    00:00 +3°C° 0.1 mm 1 mps 585 mmHg 44%
    01:00 +4°C° 0.1 mm 1 mps 585 mmHg 44%
    02:00 +4°C° 0.1 mm 1 mps 585 mmHg 45%
    03:00 +4°C° 0.2 mm 1 mps 585 mmHg 48%
    04:00 +3°C° 0.2 mm 2 mps 585 mmHg 52%
    05:00 +3°C° 0.2 mm 2 mps 585 mmHg 55%
    06:00 +3°C° 0.1 mm 2 mps 585 mmHg 59%
    07:00 +2°C° 0.1 mm 2 mps 586 mmHg 63%
    08:00 +2°C° 0.1 mm 2 mps 586 mmHg 68%
    09:00 +2°C° 0.1 mm 2 mps 586 mmHg 67%
    10:00 +3°C° 0.1 mm 2 mps 586 mmHg 67%
    11:00 +2°C° 0.1 mm 3 mps 586 mmHg 67%
    12:00 +2°C° 0.4 mm 3 mps 586 mmHg 68%
    13:00 +3°C° 0.4 mm 2 mps 585 mmHg 70%
    14:00 +4°C° 0.4 mm 2 mps 585 mmHg 71%
    15:00 +3°C° 0.2 mm 3 mps 585 mmHg 72%
    16:00 +3°C° 0.2 mm 3 mps 585 mmHg 73%
    17:00 +3°C° 0.2 mm 3 mps 585 mmHg 73%
    18:00 +2°C° 0.2 mm 3 mps 585 mmHg 74%
    19:00 +2°C° 0.2 mm 3 mps 585 mmHg 76%
    20:00 +2°C° 0.2 mm 2 mps 586 mmHg 77%
    21:00 +1°C° 0.2 mm 3 mps 586 mmHg 77%
    22:00 +1°C° 0.2 mm 3 mps 586 mmHg 78%
    23:00 +1°C° 0.2 mm 3 mps 585 mmHg 79%

    19 January, Saturday

    Time Temperature Precipitation Wind Pressure Humidity
    00:00 0°C° 0.4 mm 3 mps 585 mmHg 82%
    01:00 +1°C° 0.4 mm 2 mps 585 mmHg 84%
    02:00 +1°C° 0.4 mm 2 mps 585 mmHg 87%
    03:00 +1°C° 0.9 mm 2 mps 585 mmHg 89%
    04:00 -1°C° 0.9 mm 2 mps 585 mmHg 91%
    05:00 +1°C° 0.9 mm 1 mps 584 mmHg 92%
    06:00 -1°C° 0.2 mm 2 mps 585 mmHg 91%
    07:00 +1°C° 0.2 mm 2 mps 585 mmHg 90%
    08:00 +1°C° 0.2 mm 2 mps 586 mmHg 90%
    09:00 +2°C° 0.1 mm 1 mps 586 mmHg 89%
    10:00 +3°C° 0.1 mm 1 mps 586 mmHg 89%
    11:00 +3°C° 0.1 mm 1 mps 586 mmHg 88%
    12:00 +3°C° 0.2 mm 1 mps 585 mmHg 87%
    13:00 +4°C° 0.2 mm 1 mps 585 mmHg 87%
    14:00 +4°C° 0.2 mm 1 mps 584 mmHg 86%
    15:00 +4°C° 0.4 mm 1 mps 584 mmHg 86%
    16:00 +3°C° 0.4 mm 2 mps 584 mmHg 86%
    17:00 +3°C° 0.4 mm 2 mps 584 mmHg 86%
    18:00 +1°C° 0.6 mm 3 mps 584 mmHg 86%
    19:00 +1°C° 0.6 mm 3 mps 585 mmHg 87%
    20:00 +1°C° 0.6 mm 3 mps 585 mmHg 87%
    21:00 0°C° 0 mm 3 mps 585 mmHg 87%
    22:00 0°C° 0 mm 3 mps 585 mmHg 87%
    23:00 -1°C° 0 mm 3 mps 584 mmHg 87%

    20 January, Sunday

    Time Temperature Precipitation Wind Pressure Humidity
    00:00 -1°C° 0 mm 3 mps 584 mmHg 87%
    01:00 -1°C° 0 mm 3 mps 584 mmHg 87%
    02:00 -1°C° 0 mm 3 mps 583 mmHg 88%
    03:00 -1°C° 0.3 mm 3 mps 583 mmHg 88%
    04:00 -1°C° 0.3 mm 3 mps 583 mmHg 89%
    05:00 -1°C° 0.3 mm 2 mps 583 mmHg 89%
    06:00 -1°C° 0.8 mm 2 mps 584 mmHg 90%
    07:00 -1°C° 0.8 mm 2 mps 584 mmHg 91%
    08:00 -1°C° 0.8 mm 2 mps 584 mmHg 92%
    09:00 -1°C° 1.2 mm 2 mps 584 mmHg 92%
    10:00 -1°C° 1.2 mm 3 mps 584 mmHg 93%
    11:00 -1°C° 1.2 mm 3 mps 584 mmHg 93%
    12:00 0°C° 0.5 mm 3 mps 583 mmHg 93%
    13:00 0°C° 0.5 mm 3 mps 582 mmHg 93%
    14:00 0°C° 0.5 mm 3 mps 582 mmHg 93%
    15:00 0°C° 0.3 mm 3 mps 581 mmHg 92%
    16:00 0°C° 0.3 mm 3 mps 581 mmHg 90%
    17:00 +1°C° 0.3 mm 2 mps 581 mmHg 89%
    18:00 -1°C° 0.4 mm 2 mps 581 mmHg 90%
    19:00 -1°C° 0.4 mm 2 mps 581 mmHg 91%
    20:00 -2°C° 0.4 mm 2 mps 582 mmHg 92%
    21:00 -3°C° 0.1 mm 2 mps 582 mmHg 92%
    22:00 -3°C° 0.1 mm 2 mps 582 mmHg 93%
    23:00 -4°C° 0.1 mm 2 mps 582 mmHg 94%

    21 January, Monday

    Time Temperature Precipitation Wind Pressure Humidity
    00:00 -3°C° 0 mm 1 mps 581 mmHg 93%
    01:00 -4°C° 0 mm 1 mps 581 mmHg 93%
    02:00 -6°C° 0 mm 0 mps 581 mmHg 92%
    03:00 -6°C° 0 mm 1 mps 580 mmHg 90%
    04:00 -6°C° 0 mm 1 mps 580 mmHg 88%
    05:00 -6°C° 0 mm 1 mps 580 mmHg 87%
    06:00 -7°C° 0 mm 1 mps 581 mmHg 84%
    07:00 -7°C° 0 mm 1 mps 581 mmHg 82%
    08:00 -8°C° 0 mm 2 mps 581 mmHg 80%
    09:00 -7°C° 0 mm 2 mps 582 mmHg 77%
    10:00 -3°C° 0 mm 1 mps 582 mmHg 75%
    11:00 -2°C° 0 mm 1 mps 583 mmHg 72%
    12:00 -1°C° 0 mm 1 mps 582 mmHg 70%
    13:00 -1°C° 0 mm 1 mps 582 mmHg 69%
    14:00 0°C° 0 mm 1 mps 581 mmHg 67%
    15:00 -1°C° 0 mm 1 mps 581 mmHg 69%
    16:00 -2°C° 0 mm 1 mps 580 mmHg 70%
    17:00 -3°C° 0 mm 1 mps 580 mmHg 72%
    18:00 -4°C° 0 mm 1 mps 580 mmHg 72%
    19:00 -7°C° 0 mm 2 mps 580 mmHg 72%
    20:00 -8°C° 0 mm 2 mps 581 mmHg 72%
    21:00 -8°C° 0 mm 2 mps 581 mmHg 73%
    22:00 -8°C° 0 mm 2 mps 581 mmHg 75%
    23:00 -9°C° 0 mm 2 mps 580 mmHg 76%
    Show more